Sandpoint, ID

4:24 AM PST on February 27, 2017 (GMT -0800)
Sandpoint

Weather History for KSZT - October, 2012

Change the Weather History Date:

Wednesday, October 3, 2012

  Actual Average Record
Temperature  
Mean Temperature 46 °F -  
Max Temperature 55 °F 62 °F 81 °F (1992)
Min Temperature 37 °F 35 °F 22 °F (1925)
Degree Days  
Heating Degree Days 19    
Moisture  
Dew Point 32 °F    
Average Humidity 63    
Maximum Humidity 100    
Minimum Humidity 33    
Precipitation  
Precipitation 0.00 in - - ()
Sea Level Pressure  
Sea Level Pressure 30.37 in    
Wind  
Wind Speed 10 mph (NE)    
Max Wind Speed 16 mph    
Max Gust Speed 22 mph    
Visibility 10 miles    
Events Rain    
Averages and records for this station are not official NWS values.
T = Trace of Precipitation, MM = Missing Value Source: NWS Daily Summary

Daily Weather History Graph

Daily Weather History Graph

Search for Another Location

Airport or City:

Trip Planner

Search our weather history database for the weather conditions in past years. The results will help you decide how hot, cold, wet, or windy it might be!

Date:

Astronomy

Oct. 03, 2012 Rise Set
Actual Time 6:49 AM PDT 6:20 PM PDT
Civil Twilight 6:18 AM PDT 6:51 PM PDT
Nautical Twilight 5:41 AM PDT 7:27 PM PDT
Astronomical Twilight 5:05 AM PDT 8:03 PM PDT
Moon 7:55 PM PDT (10/3) 10:36 AM PDT (10/3)
Length of Visible Light 12h 32m
Length of Day
11h 30m
Waning Gibbous, 88% of the Moon is Illuminated
Oct 3
Waning Gibbous
Oct 8
Last Quarter
Oct 15
New
Oct 21
First Quarter
Oct 29
Full

Hourly Weather History & Observations

Time (PDT) Temp. Windchill Dew Point Humidity Pressure Visibility Wind Dir Wind Speed Gust Speed Precip Events Conditions
12:15 AM 39.2 °F 34.2 °F 37.4 °F 93% 30.19 in 10.0 mi ENE 6.9 mph - N/A Rain Light Rain
12:35 AM 37.4 °F 32.1 °F 37.4 °F 100% 30.20 in 10.0 mi NE 6.9 mph - N/A Rain Light Rain
1:15 AM 39.2 °F 32.0 °F 35.6 °F 87% 30.20 in 10.0 mi ENE 11.5 mph 17.3 mph N/A   Mostly Cloudy
1:35 AM 39.2 °F 30.8 °F 37.4 °F 93% 30.20 in 10.0 mi NE 15.0 mph - N/A   Clear
1:55 AM 39.2 °F 32.0 °F 35.6 °F 87% 30.22 in 10.0 mi NNE 11.5 mph 19.6 mph N/A   Clear
2:15 AM 39.2 °F 32.5 °F 35.6 °F 87% 30.23 in 10.0 mi NNE 10.4 mph 17.3 mph N/A   Clear
2:35 AM 39.2 °F 32.5 °F 35.6 °F 87% 30.24 in 10.0 mi NNE 10.4 mph - N/A   Clear
2:55 AM 39.2 °F 33.0 °F 35.6 °F 87% 30.25 in 10.0 mi NNE 9.2 mph - N/A   Clear
3:15 AM 39.2 °F 32.5 °F 35.6 °F 87% 30.27 in 10.0 mi NNE 10.4 mph - N/A   Clear
3:35 AM 39.2 °F 31.6 °F 35.6 °F 87% 30.28 in 10.0 mi NNE 12.7 mph - N/A   Clear
3:55 AM 39.2 °F 31.6 °F 35.6 °F 87% 30.29 in 10.0 mi NNE 12.7 mph 17.3 mph N/A   Clear
4:15 AM 39.2 °F 31.6 °F 35.6 °F 87% 30.30 in 10.0 mi NNE 12.7 mph 17.3 mph N/A   Clear
4:55 AM 37.4 °F 30.8 °F 33.8 °F 87% 30.31 in 10.0 mi NNE 9.2 mph 16.1 mph N/A   Clear
5:15 AM 37.4 °F 30.8 °F 33.8 °F 87% 30.33 in 10.0 mi NNE 9.2 mph - N/A   Clear
5:55 AM 37.4 °F 29.8 °F 33.8 °F 87% 30.34 in 10.0 mi NNE 11.5 mph - N/A   Clear
6:15 AM 37.4 °F 29.8 °F 33.8 °F 87% 30.35 in 10.0 mi NNE 11.5 mph - N/A   Clear
6:35 AM 37.4 °F 28.9 °F 33.8 °F 87% 30.36 in 10.0 mi NNE 13.8 mph - N/A   Clear
6:55 AM 39.2 °F 31.2 °F 33.8 °F 81% 30.37 in 10.0 mi NNE 13.8 mph - N/A   Clear
7:15 AM 39.2 °F 31.2 °F 33.8 °F 81% 30.37 in 10.0 mi NNE 13.8 mph - N/A   Clear
7:35 AM 39.2 °F 31.2 °F 33.8 °F 81% 30.38 in 10.0 mi NNE 13.8 mph - N/A   Clear
7:55 AM 41.0 °F 34.3 °F 33.8 °F 76% 30.39 in 10.0 mi NNE 11.5 mph - N/A   Clear
8:15 AM 41.0 °F 34.7 °F 33.8 °F 76% 30.40 in 10.0 mi NNE 10.4 mph - N/A   Clear
8:35 AM 44.6 °F 38.1 °F 33.8 °F 66% 30.40 in 10.0 mi NNE 13.8 mph - N/A   Clear
8:55 AM 44.6 °F 37.4 °F 32.0 °F 61% 30.41 in 10.0 mi NNE 16.1 mph 21.9 mph N/A   Clear
9:15 AM 46.4 °F 40.1 °F 32.0 °F 57% 30.41 in 10.0 mi NNE 15.0 mph 18.4 mph N/A   Clear
9:35 AM 48.2 °F - 32.0 °F 54% 30.42 in 10.0 mi NNE 16.1 mph 21.9 mph N/A   Clear
9:55 AM 50.0 °F - 32.0 °F 50% 30.43 in 10.0 mi NNE 16.1 mph - N/A   Clear
10:15 AM 50.0 °F - 32.0 °F 50% 30.43 in 10.0 mi NNE 16.1 mph 20.7 mph N/A   Clear
10:35 AM 51.8 °F - 30.2 °F 44% 30.44 in 10.0 mi NNE 16.1 mph 19.6 mph N/A   Clear
10:55 AM 51.8 °F - 28.4 °F 41% 30.44 in 10.0 mi NNE 16.1 mph 21.9 mph N/A   Clear
11:15 AM 51.8 °F - 28.4 °F 41% 30.44 in 10.0 mi North 12.7 mph 18.4 mph N/A   Clear
11:35 AM 53.6 °F - 26.6 °F 35% 30.44 in 10.0 mi North 13.8 mph 17.3 mph N/A   Clear
11:55 AM 53.6 °F - 26.6 °F 35% 30.44 in 10.0 mi NE 11.5 mph 19.6 mph N/A   Clear
12:15 PM 53.6 °F - 28.4 °F 38% 30.44 in 10.0 mi NE 8.1 mph - N/A   Clear
12:35 PM 55.4 °F - 26.6 °F 33% 30.44 in 10.0 mi NNE 8.1 mph - N/A   Clear
12:55 PM 53.6 °F - 28.4 °F 38% 30.44 in 10.0 mi NE 3.5 mph - N/A   Clear
1:15 PM 55.4 °F - 28.4 °F 36% 30.43 in 10.0 mi NE 5.8 mph - N/A   Clear
1:35 PM 55.4 °F - 28.4 °F 36% 30.43 in 10.0 mi ESE 5.8 mph - N/A   Clear
1:55 PM 55.4 °F - 28.4 °F 36% 30.42 in 10.0 mi Calm Calm - N/A   Clear
2:15 PM 55.4 °F - 30.2 °F 38% 30.42 in 10.0 mi East 6.9 mph - N/A   Clear
2:35 PM 55.4 °F - 28.4 °F 36% 30.42 in 10.0 mi SE 5.8 mph - N/A   Clear
2:55 PM 55.4 °F - 30.2 °F 38% 30.41 in 10.0 mi ESE 3.5 mph - N/A   Clear
3:15 PM 55.4 °F - 30.2 °F 38% 30.41 in 10.0 mi SE 3.5 mph - N/A   Clear
3:35 PM 55.4 °F - 28.4 °F 36% 30.40 in 10.0 mi SE 4.6 mph - N/A   Scattered Clouds
3:55 PM 55.4 °F - 30.2 °F 38% 30.40 in 10.0 mi ESE 8.1 mph - N/A   Scattered Clouds
4:15 PM 55.4 °F - 28.4 °F 36% 30.39 in 10.0 mi SE 9.2 mph - N/A   Clear
4:35 PM 55.4 °F - 30.2 °F 38% 30.39 in 10.0 mi East 4.6 mph - N/A   Clear
4:55 PM 53.6 °F - 33.8 °F 47% 30.39 in 10.0 mi East 11.5 mph 20.7 mph N/A   Mostly Cloudy
5:15 PM 53.6 °F - 33.8 °F 47% 30.40 in 10.0 mi East 10.4 mph 16.1 mph N/A   Overcast
5:35 PM 51.8 °F - 32.0 °F 47% 30.40 in 10.0 mi East 4.6 mph - N/A   Scattered Clouds
5:55 PM 51.8 °F - 32.0 °F 47% 30.40 in 10.0 mi North 3.5 mph - N/A   Clear
6:15 PM 48.2 °F - 32.0 °F 54% 30.40 in 10.0 mi North 5.8 mph - N/A   Clear
6:35 PM 46.4 °F 45.2 °F 32.0 °F 57% 30.40 in 10.0 mi North 3.5 mph - N/A   Clear
6:55 PM 46.4 °F 42.9 °F 32.0 °F 57% 30.40 in 10.0 mi North 6.9 mph - N/A   Clear
7:15 PM 44.6 °F 40.7 °F 32.0 °F 61% 30.40 in 10.0 mi NNE 6.9 mph - N/A   Clear
7:35 PM 44.6 °F 40.2 °F 32.0 °F 61% 30.40 in 10.0 mi NNE 8.1 mph - N/A   Clear
7:55 PM 42.8 °F 39.3 °F 32.0 °F 66% 30.40 in 10.0 mi NNE 5.8 mph - N/A   Clear
8:15 PM 42.8 °F 38.6 °F 32.0 °F 66% 30.40 in 10.0 mi NNE 6.9 mph - N/A   Clear
8:35 PM 42.8 °F 38.0 °F 32.0 °F 66% 30.40 in 10.0 mi NNE 8.1 mph - N/A   Clear
8:55 PM 41.0 °F 36.4 °F 32.0 °F 70% 30.39 in 10.0 mi NNE 6.9 mph - N/A   Clear
9:15 PM 41.0 °F 36.4 °F 32.0 °F 70% 30.39 in 10.0 mi NNE 6.9 mph - N/A   Clear
9:35 PM 41.0 °F 35.2 °F 32.0 °F 70% 30.39 in 10.0 mi NE 9.2 mph - N/A   Clear
9:55 PM 41.0 °F 35.8 °F 32.0 °F 70% 30.38 in 10.0 mi NNE 8.1 mph - N/A   Clear
10:15 PM 41.0 °F 34.7 °F 32.0 °F 70% 30.38 in 10.0 mi NNE 10.4 mph - N/A   Clear
10:35 PM 39.2 °F 32.0 °F 32.0 °F 75% 30.38 in 10.0 mi NNE 11.5 mph - N/A   Clear
10:55 PM 39.2 °F 33.0 °F 30.2 °F 70% 30.38 in 10.0 mi NNE 9.2 mph - N/A   Clear
11:15 PM 37.4 °F 30.3 °F 30.2 °F 75% 30.38 in 10.0 mi NNE 10.4 mph - N/A   Clear
11:35 PM 37.4 °F 28.9 °F 30.2 °F 75% 30.37 in 10.0 mi NNE 13.8 mph - N/A   Clear
11:55 PM 37.4 °F 28.9 °F 30.2 °F 75% 30.37 in 10.0 mi NNE 13.8 mph - N/A   Clear